Ireland West Airport Knock, Ireland

11:25 PM GMT on November 24, 2017 (GMT +0000)
Connaught

Weather History for EIKN - July, 2013

Change the Weather History Date:

Friday, July 26, 2013

  Actual Average Record
Temperature  
Mean Temperature 62 °F -  
Max Temperature 70 °F - - ()
Min Temperature 54 °F - - ()
Degree Days  
Heating Degree Days 3    
Growing Degree Days 12 (Base 50)    
Moisture  
Dew Point 55 °F    
Average Humidity 74    
Maximum Humidity 100    
Minimum Humidity 49    
Precipitation  
Precipitation 0.04 in - - ()
Sea Level Pressure  
Sea Level Pressure 29.82 in    
Wind  
Wind Speed 3 mph ()    
Max Wind Speed 9 mph    
Max Gust Speed -    
Visibility 6.1 miles    
Events Fog , Rain    
T = Trace of Precipitation, MM = Missing Value Source: Averaged Metar Reports

Daily Weather History Graph

Daily Weather History Graph

Search for Another Location

Airport or City:

Trip Planner

Search our weather history database for the weather conditions in past years. The results will help you decide how hot, cold, wet, or windy it might be!

Date:

Astronomy

Jul. 26, 2013 Rise Set
Actual Time 5:39 AM IST 9:43 PM IST
Civil Twilight 4:53 AM IST 10:29 PM IST
Nautical Twilight 3:45 AM IST 11:35 PM IST
Astronomical Twilight 2:14 AM IST 1:09 AM IST
Moon 10:54 PM IST (7/26) 10:51 AM IST (7/26)
Length of Visible Light 17h 35m
Length of Day
16h 03m
Waning Gibbous, 82% of the Moon is Illuminated
Jul 26
Waning Gibbous
Jul 29
Last Quarter
Aug 6
New
Aug 14
First Quarter
Aug 21
Full

Hourly Weather History & Observations

Time (IST) Temp. Dew Point Humidity Pressure Visibility Wind Dir Wind Speed Gust Speed Precip Events Conditions
1:00 AM 58 °F 56 °F 90% 29.83 in - SE 2.2 mph - -  
6:00 AM 55.4 °F 53.6 °F 94% 29.80 in 6.2 mi SSW 3.5 mph - N/A   Partly Cloudy
7:00 AM 56 °F 55 °F 97% 29.83 in 47 mi South 2.2 mph - -   Scattered Clouds
7:00 AM 55.4 °F 55.4 °F 100% 29.80 in 6.2 mi South 1.2 mph - N/A   Partly Cloudy
7:30 AM 57.2 °F 57.2 °F 100% 29.83 in 6.2 mi South 2.3 mph - N/A Fog Partly Cloudy
8:00 AM 57.2 °F 57.2 °F 100% 29.83 in 6.2 mi South 1.2 mph - N/A Fog Partly Cloudy
8:30 AM 60.8 °F 57.2 °F 88% 29.83 in 6.2 mi Calm Calm - N/A   Partly Cloudy
9:00 AM 59.0 °F 57.2 °F 94% 29.83 in 6.2 mi SSE 3.5 mph - N/A   Partly Cloudy
9:30 AM 60.8 °F 57.2 °F 88% 29.83 in 6.2 mi South 2.3 mph - N/A   Mostly Cloudy
10:00 AM 62.6 °F 55.4 °F 77% 29.83 in 6.2 mi SE 4.6 mph - N/A   Scattered Clouds
10:30 AM 62.6 °F 55.4 °F 77% 29.83 in 6.2 mi ESE 5.8 mph - N/A   Scattered Clouds
11:00 AM 62.6 °F 57.2 °F 82% 29.83 in 6.2 mi SSE 2.3 mph - N/A Rain Light Rain Showers
11:30 AM 60.8 °F 55.4 °F 82% 29.83 in 6.2 mi SSW 1.2 mph - N/A Rain Light Rain Showers
12:00 PM 62.6 °F 55.4 °F 77% 29.83 in 6.2 mi South 2.3 mph - N/A   Mostly Cloudy
12:30 PM 64.4 °F 57.2 °F 77% 29.83 in 6.2 mi SE 4.6 mph - N/A   Mostly Cloudy
1:00 PM 67 °F 54 °F 53% 29.82 in 47 mi SSE 8.9 mph - -   Partly Cloudy
1:00 PM 66.2 °F 53.6 °F 64% 29.83 in 6.2 mi SSE 8.1 mph - N/A   Mostly Cloudy
1:30 PM 68.0 °F 50.0 °F 52% 29.83 in 6.2 mi South 6.9 mph - N/A   Scattered Clouds
2:00 PM 69.8 °F 50.0 °F 49% 29.83 in 6.2 mi South 4.6 mph - N/A   Scattered Clouds
2:30 PM 69.8 °F 50.0 °F 49% 29.80 in 6.2 mi South 6.9 mph - N/A   Scattered Clouds
3:00 PM 69.8 °F 51.8 °F 53% 29.80 in 6.2 mi South 4.6 mph - N/A   Scattered Clouds
3:30 PM 68.0 °F 51.8 °F 56% 29.80 in 6.2 mi SSE 5.8 mph - N/A   Mostly Cloudy
4:00 PM 68.0 °F 53.6 °F 60% 29.80 in 6.2 mi SSE 5.8 mph - N/A Rain Light Rain Showers
4:30 PM 68.0 °F 53.6 °F 60% 29.80 in 6.2 mi South 3.5 mph - N/A   Mostly Cloudy
5:00 PM 66.2 °F 55.4 °F 68% 29.80 in 6.2 mi SE 8.1 mph - N/A Rain Light Rain Showers
5:30 PM 68.0 °F 53.6 °F 60% 29.80 in 6.2 mi SSE 8.1 mph - N/A   Mostly Cloudy
6:00 PM 68.0 °F 53.6 °F 60% 29.80 in 6.2 mi SSE 9.2 mph - N/A   Mostly Cloudy
6:30 PM 64.4 °F 53.6 °F 68% 29.80 in 5.0 mi SSE 5.8 mph - N/A   Scattered Clouds
7:00 PM 64 °F 58 °F 73% 29.81 in 6 mi West 6.7 mph - -   Mostly Cloudy
7:00 PM 64.4 °F 57.2 °F 77% 29.80 in 6.2 mi West 6.9 mph - N/A   Scattered Clouds